Weather Service Report


591 
ASCA42 TJSJ 221610
RWRPR 
PUERTO RICO/U.S. VIRGIN ISLANDS HOURLY WEATHER ROUNDUP
NATIONAL WEATHER SERVICE SAN JUAN PR
1200 PM AST FRI MAY 22 2015

PRZ001-004-221700-
PUERTO RICO
  
CITY           SKY/WX    TMP DP  RH WIND       PRES   REMARKS
SAN JUAN LMM   MOSUNNY   90  75  62 E18G25    30.09F HX 100           
PONCE          MOSUNNY   90  73  58 SE12G21   30.04S HX  98           
MAYAGUEZ       MOSUNNY   88  73  62 W10       30.12R HX  96           
AGUADILLA      MOSUNNY   84  73  70 E14       30.10S HX  91           
CEIBA          PTSUNNY   88  73  62 E16       30.13  HX  96           
$$

PRZ006-007-221700-
U.S. VIRGIN ISLANDS
  
CITY           SKY/WX    TMP DP  RH WIND       PRES   REMARKS
CHARLOTTE AMA  PTSUNNY   86  73  66 SE16      30.11S HX  93           
CHRISTIANSTED  MOSUNNY   88  73  62 E16       30.12R HX  96           
$$

HOURLY WEATHER ROUNDUP FOR THE NEWS MEDIA
  
CITY           SKY/WX    TMP DP  RH WIND       PRES   REMARKS
ORLANDO        SUNNY     89  66  46 N6        30.11R HX  91           
NEW YORK       MOSUNNY   72  40  31 SW18      29.93S                  
NEWARK         MOSUNNY   73  40  30 NW16G24   29.92F                  
CHICAGO        MOSUNNY   61  32  33 NE10      30.22R                  
HARTFORD       SUNNY     70  40  33 VRB7      29.82S                  
BOSTON         MOSUNNY   70  36  28 W10       29.81S                  
DALLAS         CLOUDY    63  53  70 SE13      30.16S                  
PHILADELPHIA   MOSUNNY   72  38  29 W18G26    30.01R                  
LOS ANGELES    PTSUNNY   60  50  69 W13       30.03R                  
WASHINGTON DC  MOSUNNY   67  42  40 W17G24    30.12R                  

Return to Home page


Western Regional Climate Center, wrcc@dri.edu